map of LPQ home
LPQ - Airport
Location
City:  Luang Prabang, Lao People's Democratic Republic (Laos)
Name:Luang Prabang International Airport
ICAO:VLLB
IATA:LPQ

Details
Type:Airport (Aerodrome, Airfield)
Use:International (customs port of entry)
Latitude:1953'52"N (19.897914)
Longitude:10209'39"E (102.160764)
Datum:WGS 1984
Elevation:955 ft (291 m)
Variation:1.12W (WMM2015v2 magnetic declination)
-0.04 annual change
Runways:1
Longest:7218 × 148 ft (2200 × 45 m), paved

Time
Time Zone:UTC+7
Local Time:

Weather
METAR:VLLB 041300Z 02002KT CAVOK 25/18 Q1012 NOSIG
TAF:VLLB 041100Z 0412/0512 34004KT 9999 FEW020
TEMPO 0416/0422 3000 BR OVC006

Related Locations
Nearby:
Farthest:SJA: 12074 mi / 19432 km
San Juan de Marcona [San Juan de Marcona Airport], ICA, PE

Find:

   beyond  
but within

Other Information
Maps:
NOTAMs:
Links:
Sources:

  
  • flag of Lao People's Democratic Republic (Laos)
  

Sectional Chart

Flight Planning
at skyvector.com

Satellite Image

Google Maps Satellite view

 

Copyright © 2004-2019 Karl L. Swartz. All rights reserved.
The Great Circle Mapper name and logo are trademarks of the Great Circle Mapper.
All other trademarks mentioned herein belong to their respective owners.
Please see credits for attibutions and further copyright information.

  Follow gcmap on Facebook Follow gcmap on Twitter GCmap on LinkedIn

hCard Microformat

Geo Microformat